[[{"header":{"parameterUnit":"m.s-1","parameterCategory":1,"la1":30.2991,"la2":30.254,"lo1":-89.0895,"lo2":-89.0444,"dy":0.0017,"dx":0.0017,"nx":28,"ny":28,"refTime":"2026-01-04T09:00:00:Z","depth":0,"parameterNumber":2,"parameterNumberName":"U-component_of_WINDS"},"data":[0,0,0,0,0,0,0,0,0,0,0,0,0,0,0,0,0,0,0,0,0,0,0,0,0,0,0,0,0,0,0,0,0,0,0,0,0,0,0,0,0,0,0,0,0,0,0,0,0,0,0,0,0,0,0,0,0,0,-0.1535,-0.1535,0,-0.1568,-0.1568,-0.1568,-0.1614,-0.1615,-0.1616,-0.1616,-0.165,-0.165,-0.165,0,0,0,0,0,0,0,0,0,0,0,0,0,-0.1512,-0.1512,-0.1535,-0.1535,-0.1536,-0.1567,-0.1568,-0.1568,-0.1614,-0.1615,-0.1616,-0.1617,-0.165,-0.165,-0.165,0,0,0,0,0,0,0,0,0,0,0,0,0,-0.1531,-0.1513,-0.1535,-0.1562,-0.1565,-0.1567,-0.1568,-0.1568,-0.1614,-0.1615,-0.1616,-0.1617,-0.165,-0.165,-0.165,-0.1628,0,0,-0.1651,-0.1651,0,0,0,0,0,0,0,0,-0.153,-0.1532,-0.1558,-0.156,-0.1564,-0.1588,-0.1572,-0.1588,-0.1613,-0.1595,-0.1616,-0.1618,-0.1628,-0.163,-0.1634,-0.163,-0.1631,-0.1651,-0.1651,-0.1651,-0.1651,0,0,0,0,0,0,0,-0.1529,-0.1531,-0.1548,-0.1558,-0.1562,-0.1573,-0.1577,-0.1575,-0.1605,-0.1597,-0.16,-0.1604,-0.163,-0.1633,-0.1635,-0.1632,-0.1651,-0.1651,-0.1651,-0.1651,-0.161,-0.1609,0,0,0,0,0,0,-0.1523,-0.1529,-0.1547,-0.1549,-0.1549,-0.1572,-0.1577,-0.1579,-0.1605,-0.161,-0.1603,-0.1606,-0.1633,-0.1635,-0.1636,-0.1611,-0.1651,-0.1651,-0.1651,-0.1611,-0.161,-0.1609,0,0,0,0,0,0,-0.1523,-0.1524,-0.1546,-0.154,-0.1544,-0.1572,-0.1574,-0.1579,-0.1582,-0.1609,-0.1615,-0.1601,-0.1634,-0.1636,-0.163,-0.1613,-0.1651,-0.1652,-0.1613,-0.1611,-0.1609,-0.1561,0,0,0,0,0,0,-0.1522,-0.1524,-0.1516,-0.154,-0.1544,-0.1538,-0.1573,-0.1579,-0.1583,-0.1587,-0.1609,-0.1614,-0.1635,-0.1629,-0.163,-0.1614,-0.1652,-0.1614,-0.1612,-0.161,-0.1565,-0.1558,-0.1553,0,0,0,0,0,-0.1521,-0.1501,-0.1515,-0.1517,-0.1534,-0.1537,-0.1539,-0.1564,-0.1581,-0.1573,-0.159,-0.1613,-0.1615,-0.1628,-0.1629,-0.1613,-0.1616,-0.1613,-0.161,-0.1567,-0.1559,-0.1553,0,0,0,0,0,0,-0.1475,-0.1505,-0.1521,-0.1508,-0.152,-0.1545,-0.1535,-0.1555,-0.1562,-0.1566,-0.1596,-0.1601,-0.159,-0.1602,-0.1615,-0.1593,-0.1619,-0.1616,-0.1586,-0.1579,-0.1573,-0.157,-0.1652,0,0,0,0,0,-0.1463,-0.1463,-0.149,-0.1476,-0.1481,-0.1507,-0.1509,-0.1527,-0.154,-0.1545,-0.1562,-0.1574,-0.1577,-0.1579,-0.1584,-0.1567,-0.1572,-0.1557,-0.1551,-0.1546,-0.1543,-0.1534,-0.1527,-0.1599,-0.1599,-0.1599,0,0,-0.144,-0.1456,-0.1454,-0.1467,-0.1478,-0.1477,-0.1511,-0.1509,-0.1508,-0.1545,-0.154,-0.1552,-0.1568,-0.1556,-0.1551,-0.1565,-0.1524,-0.1542,-0.1538,-0.1538,-0.153,-0.1523,-0.1517,-0.1597,-0.1598,-0.1598,0,0,-0.1395,-0.1408,-0.1398,-0.1408,-0.1424,-0.1442,-0.1439,-0.1461,-0.1471,-0.1466,-0.1494,-0.1493,-0.1499,-0.1508,-0.1514,-0.1473,-0.1493,-0.1473,-0.1442,-0.1433,-0.1427,-0.1422,-0.1406,-0.14,-0.147,-0.147,-0.147,0,-0.1363,-0.1363,-0.139,-0.1385,-0.139,-0.1424,-0.1413,-0.1422,-0.1439,-0.1441,-0.1456,-0.1463,-0.1476,-0.1466,-0.1456,-0.146,-0.1457,-0.147,-0.1426,-0.1421,-0.1417,-0.1402,-0.1396,-0.1468,-0.1468,-0.1468,-0.1469,0,-0.1322,-0.1321,-0.1311,-0.1326,-0.133,-0.1323,-0.1348,-0.1349,-0.1366,-0.1382,-0.1376,-0.1393,-0.1401,-0.14,-0.1418,-0.1393,-0.14,-0.142,-0.1446,-0.1407,-0.1393,-0.1388,-0.1464,-0.1465,-0.1466,-0.1466,0,0,-0.1249,-0.1279,-0.1275,-0.1282,-0.1302,-0.1302,-0.1296,-0.1304,-0.1303,-0.1314,-0.1309,-0.1312,-0.133,-0.1336,-0.1355,-0.1347,-0.1312,-0.1368,-0.1369,-0.1356,-0.1284,-0.1268,-0.1261,-0.1327,-0.1326,-0.1325,-0.1282,0,-0.1208,-0.1199,-0.1223,-0.1208,-0.1207,-0.1239,-0.1234,-0.1246,-0.126,-0.1261,-0.1278,-0.1279,-0.1304,-0.1307,-0.1301,-0.1318,-0.1298,-0.1321,-0.1321,-0.1321,-0.1315,-0.1254,-0.1238,-0.1197,-0.1277,-0.1277,-0.1276,0,-0.1158,-0.1166,-0.115,-0.1171,-0.1171,-0.1166,-0.1175,-0.1176,-0.119,-0.1201,-0.1207,-0.1229,-0.1224,-0.125,-0.1243,-0.1258,-0.126,-0.1268,-0.1267,-0.1267,-0.1295,-0.1251,-0.1184,-0.1178,-0.1268,-0.1269,-0.1269,0,-0.1105,-0.1112,-0.1103,-0.1108,-0.1132,-0.1127,-0.1137,-0.1152,-0.1155,-0.1163,-0.1164,-0.1172,-0.1175,-0.118,-0.1203,-0.122,-0.1193,-0.1221,-0.1201,-0.12,-0.1193,-0.1193,-0.1124,-0.1196,-0.1196,-0.1196,-0.1196,0,-0.1056,-0.1045,-0.1079,-0.1074,-0.1062,-0.109,-0.1078,-0.1091,-0.1104,-0.1101,-0.113,-0.1127,-0.1158,-0.1158,-0.1176,-0.1167,-0.1169,-0.1177,-0.1182,-0.1174,-0.1172,-0.1174,-0.1177,-0.1195,-0.1195,-0.1195,-0.1196,0,-0.0994,-0.1017,-0.1009,-0.1032,-0.1038,-0.1028,-0.1048,-0.1044,-0.106,-0.1056,-0.1057,-0.1083,-0.1084,-0.1108,-0.1115,-0.1127,-0.111,-0.1121,-0.1105,-0.1108,-0.1086,-0.1087,-0.1015,-0.1007,-0.1085,-0.1084,-0.1084,0,-0.096,-0.0953,-0.0975,-0.0975,-0.0983,-0.0983,-0.0986,-0.1013,-0.1015,-0.103,-0.1023,-0.1027,-0.1032,-0.1033,-0.1052,-0.1057,-0.1067,-0.1042,-0.1068,-0.106,-0.1065,-0.1065,-0.1063,-0.1035,-0.1034,-0.1034,-0.1033,0,-0.0898,-0.0909,-0.0912,-0.0919,-0.0921,-0.0928,-0.0937,-0.0935,-0.0965,-0.0965,-0.0967,-0.0971,-0.0977,-0.098,-0.0989,-0.0999,-0.102,-0.1025,-0.102,-0.1011,-0.1002,-0.1005,-0.1088,-0.1026,-0.1027,-0.1027,-0.1027,-0.1028,-0.0848,-0.0842,-0.0857,-0.0859,-0.0868,-0.0875,-0.0872,-0.0888,-0.089,-0.0897,-0.0913,-0.0912,-0.0925,-0.0939,-0.0947,-0.0946,-0.0959,-0.0953,-0.0951,-0.0949,-0.0944,-0.1003,-0.0948,-0.0948,-0.0949,-0.0949,-0.0949,0,-0.0786,-0.0797,-0.0799,-0.0809,-0.0811,-0.0831,-0.0842,-0.0841,-0.084,-0.0851,-0.0854,-0.0856,-0.0859,-0.0878,-0.0883,-0.0878,-0.0888,-0.0879,-0.0879,-0.088,-0.0933,-0.0935,-0.087,-0.087,-0.087,-0.0871,-0.0871,-0.0871,-0.0754,-0.0745,-0.0758,-0.0753,-0.0764,-0.0763,-0.0767,-0.0773,-0.0782,-0.0782,-0.0785,-0.0797,-0.0811,-0.0817,-0.082,-0.0826,-0.0826,-0.0812,-0.0821,-0.0869,-0.0877,-0.0884,-0.0887,-0.0813,-0.0812,-0.0769,-0.0768,-0.0768]},{"header":{"parameterUnit":"m.s-1","parameterCategory":1,"la1":30.2991,"la2":30.254,"lo1":-89.0895,"lo2":-89.0444,"dy":0.0017,"dx":0.0017,"nx":28,"ny":28,"refTime":"2026-01-04T09:00:00:Z","depth":0,"parameterNumber":3,"parameterNumberName":"V-component_of_WINDS"},"data":[0,0,0,0,0,0,0,0,0,0,0,0,0,0,0,0,0,0,0,0,0,0,0,0,0,0,0,0,0,0,0,0,0,0,0,0,0,0,0,0,0,0,0,0,0,0,0,0,0,0,0,0,0,0,0,0,0,0,2.5971,2.5971,0,2.5987,2.5987,2.5987,2.5936,2.5934,2.5933,2.5931,2.5947,2.5949,2.595,0,0,0,0,0,0,0,0,0,0,0,0,0,2.5897,2.5899,2.5971,2.5971,2.5971,2.5987,2.5987,2.5987,2.5936,2.5934,2.5933,2.5931,2.5946,2.5948,2.5951,0,0,0,0,0,0,0,0,0,0,0,0,0,2.5923,2.5899,2.5971,2.5948,2.5946,2.5987,2.5987,2.5987,2.5937,2.5934,2.5932,2.593,2.5945,2.5948,2.5951,2.6014,0,0,2.5959,2.5961,0,0,0,0,0,0,0,0,2.5921,2.5925,2.5951,2.5949,2.5947,2.5957,2.5966,2.5996,2.5937,2.594,2.5931,2.5929,2.5952,2.5954,2.5962,2.6015,2.6016,2.596,2.5961,2.5962,2.5963,0,0,0,0,0,0,0,2.5919,2.5924,2.5977,2.5951,2.5949,2.5937,2.5938,2.5972,2.5959,2.594,2.5936,2.5939,2.5951,2.596,2.5962,2.6016,2.5959,2.5962,2.5964,2.5965,2.6124,2.6126,0,0,0,0,0,0,2.5921,2.5923,2.5976,2.5977,2.5928,2.594,2.5941,2.5956,2.5958,2.5956,2.5941,2.5936,2.5956,2.5959,2.5962,2.6038,2.5962,2.5965,2.5967,2.6121,2.6124,2.6127,0,0,0,0,0,0,2.5919,2.5926,2.5976,2.5949,2.5955,2.5944,2.5961,2.5958,2.5967,2.5959,2.5956,2.5952,2.5954,2.5959,2.6002,2.6038,2.5966,2.5969,2.6118,2.6122,2.6126,2.6189,0,0,0,0,0,0,2.5917,2.5926,2.5949,2.595,2.5956,2.6015,2.5963,2.596,2.5972,2.5966,2.5969,2.5967,2.5953,2.5999,2.6005,2.604,2.5971,2.6115,2.612,2.6125,2.6184,2.6195,2.6204,0,0,0,0,0,2.5915,2.5966,2.5951,2.5958,2.5986,2.6018,2.6021,2.6003,2.5975,2.5999,2.5994,2.5967,2.6033,2.6003,2.601,2.6047,2.6113,2.6119,2.6124,2.618,2.6193,2.6204,0,0,0,0,0,0,2.5968,2.5966,2.5949,2.6002,2.6011,2.6009,2.6038,2.6018,2.6034,2.6028,2.6005,2.6007,2.6055,2.6055,2.6022,2.611,2.6068,2.6075,2.6108,2.612,2.613,2.6129,2.5973,0,0,0,0,0,2.5987,2.6013,2.6009,2.6056,2.6061,2.605,2.6062,2.6048,2.6056,2.606,2.6058,2.6067,2.609,2.6105,2.6125,2.6184,2.6185,2.6213,2.6223,2.6231,2.6238,2.6271,2.6284,2.6146,2.6146,2.6146,0,0,2.6024,2.6026,2.6043,2.6067,2.6072,2.61,2.6053,2.6084,2.6105,2.6064,2.6106,2.6105,2.6114,2.6166,2.6189,2.6168,2.6277,2.6239,2.6245,2.6248,2.6278,2.6292,2.6303,2.615,2.6149,2.6149,0,0,2.6107,2.611,2.6151,2.6157,2.6166,2.6158,2.6168,2.6171,2.6169,2.6211,2.6182,2.6206,2.6245,2.6253,2.6262,2.635,2.6327,2.6358,2.641,2.6443,2.6454,2.6463,2.6496,2.6508,2.6364,2.6365,2.6365,0,2.6152,2.6193,2.6174,2.6208,2.622,2.6186,2.6227,2.6234,2.6249,2.6258,2.6235,2.6285,2.6288,2.6342,2.6364,2.6372,2.6383,2.6357,2.6454,2.6463,2.6472,2.6503,2.6515,2.6368,2.6368,2.6368,2.6367,0,2.6249,2.6278,2.631,2.6327,2.6342,2.6379,2.6367,2.6384,2.637,2.6365,2.6409,2.6411,2.6433,2.6444,2.6429,2.6497,2.6484,2.6458,2.6415,2.6489,2.6518,2.653,2.6374,2.6372,2.6371,2.637,0,0,2.6365,2.6372,2.6384,2.6392,2.6401,2.6423,2.6459,2.6481,2.6497,2.6509,2.654,2.6575,2.6551,2.6562,2.6548,2.6576,2.6648,2.6546,2.6546,2.6566,2.6725,2.6745,2.6759,2.6632,2.6635,2.6636,2.6724,0,2.6447,2.651,2.6495,2.6558,2.6586,2.6555,2.6587,2.6596,2.6593,2.6616,2.6612,2.6638,2.6603,2.661,2.6637,2.6634,2.668,2.6627,2.6661,2.6663,2.6661,2.6774,2.6795,2.6878,2.6735,2.6737,2.6739,0,2.6551,2.6569,2.6635,2.6641,2.6652,2.6681,2.67,2.6723,2.6733,2.6728,2.6742,2.6723,2.6759,2.6717,2.6768,2.6733,2.6746,2.6747,2.675,2.6753,2.6705,2.6781,2.6904,2.6917,2.6756,2.6754,2.6753,0,2.6631,2.6671,2.6716,2.6723,2.6731,2.6753,2.6757,2.6764,2.6779,2.6796,2.6806,2.6827,2.6839,2.6856,2.6843,2.6813,2.6897,2.6853,2.6895,2.6896,2.6914,2.6913,2.7042,2.6922,2.6922,2.6922,2.6921,0,2.6725,2.6766,2.6752,2.678,2.6826,2.6809,2.6855,2.6856,2.6863,2.6891,2.6865,2.6892,2.6874,2.6899,2.6889,2.6934,2.6939,2.6937,2.6934,2.694,2.6941,2.6949,2.6943,2.6925,2.6924,2.6924,2.6923,0,2.6821,2.6813,2.686,2.6864,2.6866,2.6901,2.6904,2.693,2.6926,2.6962,2.6969,2.6962,2.6991,2.698,2.701,2.7004,2.7061,2.705,2.7058,2.7056,2.7099,2.7096,2.7238,2.7257,2.7124,2.7125,2.7126,0,2.6882,2.6914,2.6922,2.6939,2.6945,2.6973,2.6988,2.6973,2.699,2.7006,2.703,2.7057,2.7077,2.7125,2.7122,2.7146,2.7136,2.7184,2.7139,2.7145,2.7138,2.7137,2.714,2.7193,2.7195,2.7196,2.7197,0,2.6991,2.6986,2.7009,2.7032,2.7052,2.7069,2.7083,2.7099,2.7085,2.7105,2.7135,2.7151,2.7183,2.721,2.7232,2.7236,2.7215,2.7212,2.7223,2.7229,2.7233,2.7233,2.7084,2.7208,2.7207,2.7206,2.7206,2.7205,2.7072,2.71,2.7111,2.7138,2.7148,2.7163,2.7188,2.7188,2.7212,2.7238,2.7227,2.7262,2.7273,2.7299,2.7307,2.7334,2.7315,2.7331,2.7335,2.734,2.7346,2.7228,2.7338,2.7337,2.7337,2.7337,2.7336,0,2.7181,2.7187,2.7213,2.7235,2.7257,2.7236,2.7252,2.7272,2.7303,2.7315,2.7336,2.7371,2.7398,2.7398,2.7423,2.7445,2.7436,2.7452,2.7451,2.7453,2.736,2.7349,2.7459,2.7459,2.7459,2.7459,2.7459,2.7459,2.724,2.7287,2.7283,2.7335,2.734,2.7374,2.7385,2.7399,2.7409,2.745,2.7472,2.7473,2.7481,2.7506,2.753,2.753,2.7541,2.7561,2.7557,2.7471,2.7459,2.7447,2.7436,2.7563,2.7563,2.7647,2.7648,2.7648]}]]